EW4115 Weather Reports


Display with metric or nautical units.
time (UTC)temp
F
wind
direction
speed
MPH
gust
MPH
rain 1hr
in
rain 24hr
in
rain mn
in
humidity
%
barometer
mb
20260902161525 90 355 2.0 10.0 0.00 0.00 0.00 32 1012.6
20260902160022 91 12 4.0 10.0 0.00 0.00 0.00 32 1012.7
20260902154526 91 16 3.0 8.0 0.00 0.00 0.00 32 1012.7
20260902153020 91 7 4.0 11.0 0.00 0.00 0.00 31 1012.6
20260902151520 92 337 3.0 10.0 0.00 0.00 0.00 31 1012.7
20260902150019 92 360 5.0 11.0 0.00 0.00 0.00 30 1012.7
20260902144518 92 10 1.0 11.0 0.00 0.00 0.00 30 1012.7
20260902143018 92 326 5.0 12.0 0.00 0.00 0.00 30 1012.8
20260902141515 92 317 4.0 11.0 0.00 0.00 0.00 30 1012.9
20260902140015 92 331 5.0 13.0 0.00 0.00 0.00 29 1013.1
20260902134513 92 350 6.0 13.0 0.00 0.00 0.00 29 1013.2
20260902133012 93 40 7.0 17.0 0.00 0.00 0.00 29 1013.2
20260902131513 93 299 6.0 14.0 0.00 0.00 0.00 28 1013.3
20260902130010 94 315 5.0 16.0 0.00 0.00 0.00 28 1013.4
20260902124511 94 355 5.0 16.0 0.00 0.00 0.00 27 1013.5
20260902123021 94 346 8.0 15.0 0.00 0.00 0.00 27 1013.4
20260902121508 94 83 5.0 16.0 0.00 0.00 0.00 27 1013.5
20260902120007 94 75 9.0 17.0 0.00 0.00 0.00 27 1013.7
20260902114504 94 333 5.0 12.0 0.00 0.00 0.00 27 1013.9
20260902113103 93 328 6.0 16.0 0.00 0.00 0.00 27 1014.0
20260902111604 94 350 6.0 18.0 0.00 0.00 0.00 27 1014.0
20260902110104 93 350 7.0 20.0 0.00 0.00 0.00 26 1014.2
20260902104556 93 49 7.0 20.0 0.00 0.00 0.00 25 1014.2
20260902103049 93 17 6.0 17.0 0.00 0.00 0.00 25 1014.1
20260902101547 93 66 10.0 19.0 0.00 0.00 0.00 25 1014.3
20260902100043 93 38 7.0 15.0 0.00 0.00 0.00 27 1014.4
20260902094543 93 337 7.0 17.0 0.00 0.00 0.00 27 1014.6
20260902093033 93 338 6.0 16.0 0.00 0.00 0.00 29 1014.6
20260902091529 93 305 4.0 13.0 0.00 0.00 0.00 30 1014.6
20260902090025 92 325 3.0 11.0 0.00 0.00 0.00 29 1014.5
20260902084520 92 316 4.0 14.0 0.00 0.00 0.00 30 1014.5
20260902083017 92 6 7.0 14.0 0.00 0.00 0.00 30 1014.5
20260902081511 91 21 5.0 15.0 0.00 0.00 0.00 31 1014.4
20260902080007 91 330 5.0 13.0 0.00 0.00 0.00 33 1014.5
20260902074503 90 343 6.0 15.0 0.00 0.00 0.00 34 1014.5
20260902073058 89 331 4.0 11.0 0.00 0.00 0.00 36 1014.4
20260902071554 88 33 3.0 8.0 0.00 0.00 0.00 37 1014.3
20260902070050 88 350 2.0 11.0 0.00 0.00 0.00 39 1014.3
20260902064546 87 31 2.0 9.0 0.00 0.00 0.00 39 1014.2
20260902063042 86 350 4.0 9.0 0.00 0.00 0.00 39 1014.2
20260902061604 86 89 1.0 11.0 0.00 0.00 0.00 41 1014.1
20260902060038 86 326 4.0 10.0 0.00 0.00 0.00 40 1014.2
20260902054543 85 54 1.0 5.0 0.00 0.00 0.00 43 1014.1
20260902053027 84 333 3.0 8.0 0.00 0.00 0.00 44 1014.1
20260902051523 84 12 1.0 4.0 0.00 0.00 0.00 46 1014.1
20260902050018 83 13 0.0 8.0 0.00 0.00 0.00 47 1014.0
20260902044513 82 318 0.0 3.0 0.00 0.00 0.00 48 1014.0
20260902043014 81 318 0.0 2.0 0.00 0.00 0.00 49 1013.9
20260902041506 81 318 0.0 3.0 0.00 0.00 0.00 49 1013.9
20260902040004 81 343 0.0 4.0 0.00 0.00 0.00 49 1013.7
20260902034502 81 56 1.0 5.0 0.00 0.00 0.00 49 1013.9
20260902033107 81 336 1.0 7.0 0.00 0.00 0.00 48 1013.7
20260902031557 81 4 0.0 6.0 0.00 0.00 0.00 47 1013.6
20260902030100 81 341 1.0 4.0 0.00 0.00 0.00 46 1013.5
20260902024558 82 321 0.0 4.0 0.00 0.00 0.00 46 1013.4
20260902023055 82 350 0.0 4.0 0.00 0.00 0.00 45 1013.4
20260902021606 82 92 3.0 9.0 0.00 0.00 0.00 44 1013.5
20260902020055 82 310 3.0 9.0 0.00 0.00 0.00 45 1013.4
20260902014554 82 332 3.0 11.0 0.00 0.00 0.00 44 1013.5
20260902013053 82 360 1.0 4.0 0.00 0.00 0.00 44 1013.6
20260902011553 82 355 1.0 4.0 0.00 0.00 0.00 45 1013.6
20260902010052 82 350 0.0 4.0 0.00 0.00 0.00 46 1013.5
20260902004551 82 316 0.0 3.0 0.00 0.00 0.00 47 1013.5
20260902003050 82 316 0.0 3.0 0.00 0.00 0.00 48 1013.5
20260902001549 82 316 0.0 3.0 0.00 0.00 0.00 49 1013.4
20260902000052 82 315 0.0 1.0 0.00 0.00 0.00 51 1013.4
20260901234554 82 315 0.0 1.0 0.00 0.00 0.00 51 1013.4
20260901233045 83 315 0.0 1.0 0.00 0.00 0.00 51 1013.4
20260901231543 83 315 0.0 3.0 0.00 0.00 0.00 50 1013.5
20260901230046 83 315 0.0 3.0 0.00 0.00 0.00 50 1013.5
20260901224540 83 315 0.0 5.0 0.00 0.00 0.00 50 1013.6
20260901223039 83 7 1.0 6.0 0.00 0.00 0.00 50 1013.6
20260901221602 83 350 1.0 5.0 0.00 0.00 0.00 50 1013.7
20260901220032 83 131 1.0 5.0 0.00 0.00 0.00 50 1013.6
20260901214528 83 66 0.0 5.0 0.00 0.00 0.00 49 1013.6
20260901213051 83 42 1.0 9.0 0.00 0.00 0.00 49 1013.4
20260901211535 83 306 0.0 3.0 0.00 0.00 0.00 50 1013.6
20260901210020 84 305 0.0 1.0 0.00 0.00 0.00 50 1013.5
20260901204515 84 305 0.0 1.0 0.00 0.00 0.00 50 1013.5
20260901203024 84 305 0.0 2.0 0.00 0.00 0.00 49 1013.5
20260901201513 84 305 0.0 2.0 0.00 0.00 0.00 49 1013.5
20260901200029 84 304 1.0 5.0 0.00 0.00 0.00 48 1013.5
20260901194513 85 350 0.0 3.0 0.00 0.00 0.00 48 1013.5
20260901193017 85 350 0.0 6.0 0.00 0.00 0.00 47 1013.5
20260901191513 85 319 0.0 4.0 0.00 0.00 0.00 47 1013.5
20260901190011 85 316 1.0 5.0 0.00 0.00 0.00 47 1013.5
20260901184510 85 314 0.0 2.0 0.00 0.00 0.00 46 1013.3
20260901183012 86 314 0.0 3.0 0.00 0.00 0.00 45 1013.3
20260901181513 86 314 0.0 4.0 0.00 0.00 0.00 44 1013.1
20260901180010 86 5 0.0 4.0 0.00 0.00 0.00 44 1013.0
20260901174508 86 333 0.0 3.0 0.00 0.00 0.00 43 1012.9
20260901173008 87 60 0.0 4.0 0.00 0.00 0.00 43 1012.7
20260901171506 87 74 0.0 2.0 0.00 0.00 0.00 42 1012.6
20260901170007 87 74 1.0 5.0 0.00 0.00 0.00 42 1012.6
20260901164510 88 72 0.0 1.0 0.00 0.00 0.00 43 1012.5
20260901163005 89 72 0.0 3.0 0.00 0.00 0.00 42 1012.4